Tracking 27188 objects as of 2-Apr-2023
HD Live streaming from Space Station
objects crossing your sky now

EUTE 12 WEST A (AB 1)

Track EUTE 12 WEST A (AB 1) now!
EUTE 12 WEST A (AB 1) is classified as:


NORAD ID: 27508
Int'l Code: 2002-040A
Perigee: 36,321.2 km
Apogee: 36,394.5 km
Inclination: 4.3 °
Period: 1,465.0 minutes
Semi major axis: 42728 km
RCS: 16.1652 m2 (large)
Launch date: August 28, 2002
Source: European Telecommunications Satellite Organization (EUTE)
Launch site: FRENCH GUIANA (FRGUI)

Twenty channels, telecommunications services between Europe and the Americas.
Your satellite tracking list
Your tracking list is empty




NASA's NSSDC Master Catalog

Two Line Element Set (TLE):
1 27508U 02040A   23090.55157772 -.00000086  00000-0  00000-0 0  9996
2 27508   4.2669  81.3221 0008576 337.8225  77.8689  0.98292821 75114
Source of the keplerian elements: AFSPC